Weather in Chust

Uzbekistan     41°00′08″N   71°13′35″E
temp.,
°C
wind,
m/s
gust,
m/s
humid.,
%
clouds,
%
prec.,
mm/h
press.,
hPa
HPBL,
m
25 february, thu
thu2523:00+3sw101552100 0.1 1022474
02:00+1ssw121649100 0.2 1025528
05:00−4sw121764100 0.2 1029478
08:00−5sw71150100 0.0 1035586
11:00−3sw4540100 0.1 1035874
14:00−1sw4433100 0.0 10361253
17:00−3sw6634100 0.0 1038677
20:00−4sw3441100 0.0 1040328
26 february, fri
fri2623:00−5s1244100 0.0 1040260
02:00−5ene1247100 0.0 1039226
05:00−6e124777 0.0 103894
08:00−5e134019 0.0 1038262
11:00−1ese34269 0.0 10341231
14:00+1ese33220 0.0 10311445
17:00+1ese22230 0.0 10311293
20:00−1nne11310 0.0 103222
27 february, sat
sat2723:00−2ne123849 0.0 103238
02:00−2e1140100 0.0 103132
05:00−3ssw0142100 0.0 103137
08:00−2wsw0139100 0.0 1031111
11:00+1sse1130100 0.0 1031704
14:00+2s2129100 0.0 10311244
17:00+3ese222966 0.0 10321395
20:00+1ne36390 0.0 1035197
28 february, sun
sun2823:000nne34450 0.0 1034100
02:000n33420 0.0 103350
05:00−1wnw02420 0.0 103123
08:00−1ese00450 0.0 102936
11:00+3sse21330 0.0 1025464
14:00+7sse22270 0.0 1023750
17:00+8sse11260 0.0 1022665
20:00+4ene22430 0.0 102450
1 march, mon
mon123:00+3ene11460 0.0 102422
02:00+2wsw014939 0.0 102422
05:00+1wsw015129 0.0 102322
08:00+2e1147100 0.0 102425
11:00+7se222695 0.0 1022394
14:00+11sse21200 0.0 1021631
17:00+11se11180 0.0 1022633
20:00+8nne11260 0.0 102522